Location: Excel
(51.3833°N, 110.5667°W)
Time: 20:41:41
(UTC+00:00)

Envisat - Pass Details

Date: 06 December 2021
Orbit: 764 x 766 km, 98.2° (Epoch: 26 January)

Event Time Altitude Azimuth Distance (km) Brightness Sun altitude
Rises 12:36:08 0° 14° (NNE) 3,248 6.3 -23.1°
Reaches altitude 10° 12:38:27 10° 15° (NNE) 2,316 5.6 -22.8°
Maximum altitude 12:43:34 88° 104° (ESE) 774 2.9 -22.0°
Drops below altitude 10° 12:48:39 10° 196° (SSW) 2,298 5.4 -21.2°
Sets 12:50:57 0° 196° (SSW) 3,220 6.2 -20.9°
